Location: Bouillancy
(49.1149°N, 2.9308°E)
Time: 06:59:07
(UTC+00:00)

Cosmos 1805 - Pass Details

Date: 30 September 2020
Orbit: 524 x 531 km, 82.5° (Epoch: 29 October)

Event Time Altitude Azimuth Distance (km) Brightness Sun altitude
Rises 18:15:22 0° 175° (S) 2,662 6.7 -8.5°
Reaches altitude 10° 18:17:32 10° 170° (S) 1,778 5.8 -8.9°
Maximum altitude 18:21:20 50° 95° (E) 683 3.4 -9.5°
Drops below altitude 10° 18:25:09 10° 19° (NNE) 1,794 5.8 -10.1°
Sets 18:27:21 0° 15° (NNE) 2,690 6.8 -10.5°
